Omaha Offutt, NE

12:12 AM CDT on April 22, 2018 (GMT -0500)
Offutt Air Force Base

Weather History for KOFF - October, 2011

Change the Weather History Date:

Thursday, October 13, 2011

  Actual Average Record
Temperature  
Mean Temperature 59 °F -  
Max Temperature 72 °F 65 °F 84 °F (1996)
Min Temperature 46 °F 43 °F 26 °F (2006)
Degree Days  
Heating Degree Days 6    
Growing Degree Days 9 (Base 50)    
Moisture  
Dew Point 44 °F    
Average Humidity 65    
Maximum Humidity 100    
Minimum Humidity 28    
Precipitation  
Precipitation 0.00 in - - ()
Sea Level Pressure  
Sea Level Pressure 29.80 in    
Wind  
Wind Speed 10 mph (NW)    
Max Wind Speed 20 mph    
Max Gust Speed 28 mph    
Visibility 10 miles    
Events      
Averages and records for this station are not official NWS values.
T = Trace of Precipitation, MM = Missing Value Source: NWS Daily Summary

Daily Weather History Graph

Daily Weather History Graph

Search for Another Location

Airport or City:

Astronomy

Oct. 13, 2011 Rise Set
Actual Time 7:32 AM CDT 6:46 PM CDT
Civil Twilight 7:05 AM CDT 7:14 PM CDT
Nautical Twilight 6:33 AM CDT 7:45 PM CDT
Astronomical Twilight 6:01 AM CDT 8:17 PM CDT
Moon 7:21 PM CDT (10/13) 9:07 AM CDT (10/13)
Length of Visible Light 12h 08m
Length of Day
11h 13m
Full, 98% of the Moon is Illuminated
Oct 13
Full
Oct 19
Last Quarter
Oct 26
New
Nov 2
First Quarter
Nov 10
Full

Hourly Weather History & Observations

Time (CDT) Temp. Dew Point Humidity Pressure Visibility Wind Dir Wind Speed Gust Speed Precip Events Conditions
12:55 AM 53.2 °F 51.8 °F 95% 29.77 in 10.0 mi WNW 10.4 mph - N/A   Clear
1:55 AM 50.9 °F 50.5 °F 99% 29.78 in 10.0 mi NW 9.2 mph - N/A   Clear
2:55 AM 50.7 °F 50.4 °F 99% 29.78 in 10.0 mi NW 6.9 mph - N/A   Clear
3:55 AM 49.8 °F 49.5 °F 99% 29.79 in 10.0 mi NW 9.2 mph - N/A   Clear
4:55 AM 49.1 °F 48.7 °F 99% 29.80 in 10.0 mi NW 8.1 mph - N/A   Clear
5:55 AM 48.7 °F 48.4 °F 99% 29.81 in 10.0 mi WNW 9.2 mph - N/A   Clear
6:55 AM 47.8 °F 47.5 °F 99% 29.82 in 10.0 mi WNW 9.2 mph - N/A   Clear
7:55 AM 46.9 °F 46.9 °F 100% 29.83 in 10.0 mi NW 9.2 mph - N/A   Clear
8:55 AM 52.5 °F 48.6 °F 86% 29.84 in 10.0 mi WNW 9.2 mph - N/A   Clear
9:55 AM 57.4 °F 48.2 °F 71% 29.84 in 10.0 mi WNW 10.4 mph - N/A   Clear
10:55 AM 61.3 °F 47.5 °F 60% 29.85 in 10.0 mi NW 9.2 mph - N/A   Clear
11:55 AM 65.8 °F 46.2 °F 49% 29.83 in 10.0 mi WNW 12.7 mph - N/A   Clear
12:55 PM 70.0 °F 42.3 °F 37% 29.82 in 10.0 mi NW 17.3 mph 25.3 mph N/A   Clear
1:55 PM 71.8 °F 39.0 °F 30% 29.79 in 10.0 mi NW 16.1 mph - N/A   Clear
2:55 PM 72.3 °F 38.1 °F 29% 29.77 in 10.0 mi WNW 19.6 mph 27.6 mph N/A   Clear
3:55 PM 72.5 °F 37.8 °F 28% 29.76 in 10.0 mi NW 15.0 mph 27.6 mph N/A   Clear
4:55 PM 72.1 °F 37.4 °F 28% 29.75 in 10.0 mi NW 17.3 mph 24.2 mph N/A   Clear
5:55 PM 69.6 °F 35.8 °F 29% 29.75 in 10.0 mi NW 12.7 mph 19.6 mph N/A   Clear
6:55 PM 63.1 °F 37.4 °F 39% 29.77 in 10.0 mi NW 8.1 mph - N/A   Clear
7:55 PM 56.7 °F 39.0 °F 52% 29.80 in 10.0 mi NW 6.9 mph - N/A   Clear
8:55 PM 55.2 °F 39.0 °F 54% 29.81 in 10.0 mi WNW 6.9 mph - N/A   Clear
9:55 PM 52.3 °F 39.0 °F 61% 29.83 in 10.0 mi NW 6.9 mph - N/A   Clear
10:55 PM 50.5 °F 39.6 °F 66% 29.83 in 10.0 mi WNW 5.8 mph - N/A   Clear
11:55 PM 54.0 °F 36.7 °F 52% 29.83 in 10.0 mi West 5.8 mph - N/A   Clear